Location: Hawks Ness
(60.2333°N, 1.1667°W)
Time: 03:19:19
(UTC+00:00)

USA 229 - Pass Details

Date: 22 October 2019
Orbit: 996 x 1216 km, 63.4° (Epoch: 11 November)

Event Time Altitude Azimuth Distance (km) Brightness Sun altitude
Exits shadow 05:23:27 13° 295° (WNW) 2,702 5.3 -12.7°
Maximum altitude 05:29:49 86° 24° (NNE) 1,140 3.9 -11.9°
Drops below altitude 10° 05:37:14 10° 114° (ESE) 3,088 7.3 -11.0°
Sets 05:40:01 0° 115° (ESE) 4,073 8.2 -10.6°
